Stations météo

réclame
Mon MeteoGroup
Shobdon, Grande-Bretagne (3520): Température de l'air & dewpoint: 13.07.2018 18:00:00 - 19.07.2018 18:00:00 (BST)Shobdon, Grande-Bretagne (3520): Température de l'air -20cm & Température de l'air -100cm: 13.07.2018 18:00:00 - 19.07.2018 18:00:00 (BST)Shobdon, Grande-Bretagne (3520): Vitesse du vent: 13.07.2018 18:00:00 - 19.07.2018 18:00:00 (BST)Shobdon, Grande-Bretagne (3520): Direction du vent: 13.07.2018 18:00:00 - 19.07.2018 18:00:00 (BST)Shobdon, Grande-Bretagne (3520): reduced air pressure: 13.07.2018 18:00:00 - 19.07.2018 18:00:00 (BST)Shobdon, Grande-Bretagne (3520): visibility: 13.07.2018 18:00:00 - 19.07.2018 18:00:00 (BST)Shobdon, Grande-Bretagne (3520): Ensoleillement: 13.07.2018 18:00:00 - 19.07.2018 18:00:00 (BST)Shobdon, Grande-Bretagne (3520): Quantités de précipitations: 13.07.2018 18:00:00 - 19.07.2018 18:00:00 (BST)
Date & Time tt [°C] td [°C] tt -20cm [°C] tt -100cm [°C] ff [km/h] ff [knt] dd ppp [hPa] vv [km] sd [min] rr [mm]
19.07.2018 18:00:00 25,6 10,7 - - 9 5 SW 1016,7 30 60 0,0
19.07.2018 17:00:00 25,2 11,5 - - 8 4 SE 1017,2 29 30 0,0
19.07.2018 16:00:00 24,1 10,4 - - 9 5 S 1017,6 35 42 0,0
19.07.2018 15:00:00 23,3 10,7 - - 8 4 S 1018,1 30 42 0,0
19.07.2018 14:00:00 24,0 11,0 - - 8 4 S 1018,5 30 48 0,0
19.07.2018 13:00:00 22,5 11,0 - - 5 3 S 1018,9 30 60 0,0
19.07.2018 12:00:00 22,1 11,6 - - 5 3 WSW 1019,2 27 60 0,0
19.07.2018 11:00:00 20,6 10,8 - - 5 3 W 1019,7 29 60 0,0
19.07.2018 10:00:00 18,7 11,9 19,2 18,0 4 2 E 1019,9 27 60 0,0
19.07.2018 09:00:00 16,4 11,5 - - 5 3 NW 1020,1 30 12 0,0
19.07.2018 08:00:00 13,8 10,8 - - 5 3 WNW 1020,1 27 0 0,0
19.07.2018 07:00:00 12,5 10,6 - - 4 2 W 1020,3 22 0 0,0
19.07.2018 06:00:00 10,7 10,0 - - 2 1 N 1020,2 18 0 0,0
19.07.2018 05:00:00 10,5 9,9 - - 5 3 NW 1020,1 22 0 0,0
19.07.2018 04:00:00 10,0 8,3 - - 2 1 WSW 1020,2 16 0 0,0
19.07.2018 03:00:00 12,0 9,6 - - 9 5 WNW 1020,0 21 0 0,0
19.07.2018 02:00:00 12,2 10,4 - - 8 4 NNW 1020,2 24 0 0,0
19.07.2018 01:00:00 11,6 9,2 - - 4 2 WNW 1020,0 22 - 0,0
19.07.2018 00:00:00 14,3 10,9 - - 9 5 NNW 1019,5 26 0 0,0
18.07.2018 23:00:00 15,4 11,1 - - 8 4 WNW 1019,5 27 0 0,0
18.07.2018 22:00:00 16,8 11,5 - - 8 4 NW 1019,1 29 0 0,0
18.07.2018 21:00:00 19,4 11,0 - - 8 4 W 1018,7 30 18 0,0
18.07.2018 20:00:00 21,0 10,5 - - 13 7 W 1018,3 30 36 0,0
18.07.2018 19:00:00 21,5 11,9 - - 8 4 SW 1017,8 29 0 0,0
18.07.2018 18:00:00 22,4 12,0 - - 15 8 WSW 1017,9 29 18 0,0
18.07.2018 17:00:00 22,8 11,7 - - 11 6 W 1017,9 30 30 0,0
18.07.2018 16:00:00 21,0 13,2 - - 9 5 W 1018,1 28 6 0,0
18.07.2018 15:00:00 21,3 12,6 - - 11 6 SW 1018,0 30 18 0,0
18.07.2018 14:00:00 20,7 13,6 - - 9 5 WSW 1018,1 27 6 0,0
18.07.2018 13:00:00 19,0 12,9 - - 8 4 S 1018,1 30 6 0,0
18.07.2018 12:00:00 19,3 15,7 - - 5 3 S 1018,3 27 12 0,0
18.07.2018 11:00:00 17,0 14,3 - - 4 2 ESE 1018,5 24 0 0,0
18.07.2018 10:00:00 15,9 13,9 19,4 18,0 4 2 SSE 1018,5 30 0 0,0
18.07.2018 09:00:00 14,5 13,7 - - 2 1 ENE 1018,5 18 0 0,8
18.07.2018 08:00:00 14,6 13,1 - - 4 2 NNW 1018,2 8 0 0,0
18.07.2018 07:00:00 13,7 12,6 - - 4 2 NE 1017,7 30 0 0,0
18.07.2018 06:00:00 12,7 12,1 - - 4 2 E 1017,5 24 0 0,0
18.07.2018 05:00:00 12,1 11,2 - - 2 1 NE 1017,3 25 0 0,0
18.07.2018 04:00:00 12,4 11,7 - - 2 1 NNE 1017,3 30 0 0,0
18.07.2018 03:00:00 11,9 11,3 - - 2 1 W 1017,4 35 0 0,0
18.07.2018 02:00:00 11,7 10,8 - - 2 1 E 1017,5 40 0 0,0
18.07.2018 01:00:00 11,5 10,2 - - 4 2 NNW 1017,5 40 - 0,0
18.07.2018 00:00:00 12,7 10,3 - - 4 2 NNE 1017,6 45 0 0,0
17.07.2018 23:00:00 15,0 10,8 - - 8 4 W 1017,2 45 0 0,0
17.07.2018 22:00:00 15,4 10,7 - - 2 1 W 1016,9 40 0 0,0
17.07.2018 21:00:00 17,4 10,2 - - 8 4 W 1016,4 45 0 0,0
17.07.2018 20:00:00 18,9 10,2 - - 13 7 W 1016,0 45 0 0,0
17.07.2018 19:00:00 19,4 10,2 - - 15 8 W 1015,7 40 0 0,0
17.07.2018 18:00:00 20,5 10,0 - - 15 8 WSW 1015,5 45 6 0,0
17.07.2018 17:00:00 20,9 9,0 - - 18 10 WSW 1015,4 45 12 0,0
17.07.2018 16:00:00 20,8 9,1 - - 18 10 W 1015,4 40 6 0,0
17.07.2018 15:00:00 21,3 9,9 - - 15 8 WSW 1015,5 35 6 0,0
17.07.2018 14:00:00 19,9 10,2 - - 8 4 W 1015,8 20 6 0,0
17.07.2018 13:00:00 19,8 11,3 - - 8 4 NW 1015,8 20 6 0,0
17.07.2018 12:00:00 19,6 11,8 - - 13 7 W 1015,9 20 0 0,0
17.07.2018 11:00:00 18,2 10,5 - - 11 6 WNW 1015,6 20 18 0,0
17.07.2018 10:00:00 18,4 11,6 19,7 18,0 9 5 SSW 1015,4 20 60 0,0
17.07.2018 09:00:00 16,3 11,5 - - 4 2 SW 1015,5 18 60 0,0
17.07.2018 08:00:00 15,6 12,5 - - 2 1 NW 1015,4 18 60 0,0
17.07.2018 07:00:00 13,5 12,2 - - 4 2 WNW 1015,3 17 36 0,0
17.07.2018 06:00:00 11,7 11,1 - - 4 2 W 1014,8 14 0 0,0
17.07.2018 05:00:00 11,4 11,4 - - 8 4 W 1014,7 16 0 0,0
17.07.2018 04:00:00 10,5 10,4 - - 2 1 E 1014,9 15 0 0,0
17.07.2018 03:00:00 9,2 8,9 - - 4 2 W 1014,9 15 0 0,0
17.07.2018 02:00:00 8,9 8,0 - - 2 1 NNW 1015,0 15 0 0,0
17.07.2018 01:00:00 10,8 9,3 - - 4 2 N 1015,1 17 - 0,0
17.07.2018 00:00:00 13,1 10,5 - - 9 5 WNW 1015,1 21 0 0,0
16.07.2018 23:00:00 13,6 10,2 - - 9 5 WNW 1014,9 21 0 0,0
16.07.2018 22:00:00 14,6 11,0 - - 11 6 W 1014,5 19 0 0,0
16.07.2018 21:00:00 16,2 11,7 - - 9 5 WNW 1013,8 20 48 0,0
16.07.2018 20:00:00 18,6 12,2 - - 15 8 WNW 1012,9 19 42 0,0
16.07.2018 19:00:00 21,2 14,3 - - 26 14 WSW 1012,2 20 24 0,0
16.07.2018 18:00:00 19,8 17,0 - - 11 6 SW 1012,4 12 0 0,0
16.07.2018 17:00:00 19,4 15,9 - - 18 10 WSW 1012,9 9 0 0,0
16.07.2018 16:00:00 21,2 15,5 - - 28 15 WSW 1012,6 11 0 0,0
16.07.2018 15:00:00 23,1 13,6 - - 11 6 SW 1012,3 12 0 0,0
16.07.2018 14:00:00 22,6 14,4 - - 4 2 S 1012,7 13 6 0,0
16.07.2018 13:00:00 22,1 13,5 - - 9 5 S 1013,3 14 36 0,0
16.07.2018 12:00:00 21,5 14,3 - - 11 6 SSE 1013,7 14 6 0,0
16.07.2018 11:00:00 20,7 13,6 - - 9 5 SW 1013,8 17 6 0,0
16.07.2018 10:00:00 19,5 14,9 20,2 18,0 5 3 SW 1013,9 14 6 0,0
16.07.2018 09:00:00 17,8 14,9 - - 2 1 E 1014,2 11 0 0,0
16.07.2018 08:00:00 16,9 14,6 - - 2 1 S 1014,2 10 0 0,0
16.07.2018 07:00:00 15,0 14,2 - - 0 0 N 1014,3 9 0 0,0
16.07.2018 06:00:00 13,9 13,2 - - 2 1 E 1014,4 9 0 0,0
16.07.2018 05:00:00 14,1 13,1 - - 5 3 ENE 1014,4 9 0 0,0
16.07.2018 04:00:00 14,9 13,2 - - 2 1 W 1014,3 12 0 0,0
16.07.2018 03:00:00 15,5 12,7 - - 8 4 NW 1014,6 13 0 0,0
16.07.2018 02:00:00 14,1 12,4 - - 4 2 WNW 1015,3 12 0 0,0
16.07.2018 01:00:00 13,7 12,1 - - 4 2 W 1015,4 12 - 0,0
16.07.2018 00:00:00 13,4 11,3 - - 2 1 SSE 1015,4 12 0 0,0
15.07.2018 23:00:00 13,9 11,7 - - 5 3 WNW 1015,4 13 0 0,0
15.07.2018 22:00:00 16,9 11,0 - - 5 3 W 1015,1 14 0 0,0
15.07.2018 21:00:00 19,7 10,3 - - 8 4 W 1014,7 16 12 0,0
15.07.2018 20:00:00 22,9 10,7 - - 15 8 W 1014,3 17 60 0,0
15.07.2018 19:00:00 24,4 11,2 - - 16 9 WSW 1014,1 18 60 0,0
15.07.2018 18:00:00 25,3 11,3 - - 18 10 WSW 1014,3 19 48 0,0
15.07.2018 17:00:00 26,2 11,8 - - 18 10 W 1014,4 17 42 0,0
15.07.2018 16:00:00 25,8 12,6 - - 15 8 WSW 1014,8 19 48 0,0
15.07.2018 15:00:00 24,8 11,3 - - 9 5 W 1014,9 15 48 0,0
15.07.2018 14:00:00 25,6 13,1 - - 13 7 SW 1015,4 17 36 0,0
15.07.2018 13:00:00 23,3 13,2 - - 13 7 WSW 1016,2 19 36 0,0
15.07.2018 12:00:00 21,4 12,5 - - 9 5 W 1016,6 17 30 0,0
15.07.2018 11:00:00 20,7 13,5 - - 11 6 WSW 1016,9 14 24 0,0
15.07.2018 10:00:00 19,3 14,4 20,2 18,0 5 3 W 1017,2 11 18 0,0
15.07.2018 09:00:00 18,5 14,8 - - 8 4 WSW 1017,5 10 54 0,0
15.07.2018 08:00:00 15,3 14,6 - - 4 2 SE 1017,8 9 12 0,0
15.07.2018 07:00:00 12,3 12,3 - - 4 2 SE 1017,9 8 0 0,0
15.07.2018 06:00:00 8,9 8,8 - - 2 1 S 1017,9 7 0 0,0
15.07.2018 05:00:00 8,2 7,9 - - 0 0 N 1018,1 7 0 0,0
15.07.2018 04:00:00 8,7 8,3 - - 2 1 S 1018,4 9 0 0,0
15.07.2018 03:00:00 9,4 9,0 - - 4 2 W 1018,4 9 0 0,0
15.07.2018 02:00:00 10,7 10,1 - - 2 1 W 1018,4 9 0 0,0
15.07.2018 01:00:00 11,7 10,2 - - 4 2 W 1018,4 11 - 0,0
15.07.2018 00:00:00 14,0 12,2 - - 5 3 WNW 1018,4 13 0 0,0
14.07.2018 23:00:00 15,7 12,0 - - 5 3 NW 1018,5 12 0 0,0
14.07.2018 22:00:00 18,0 12,5 - - 9 5 NW 1018,3 12 0 0,0
14.07.2018 21:00:00 20,6 13,4 - - 11 6 W 1017,7 13 36 0,0
14.07.2018 20:00:00 23,0 13,4 - - 11 6 W 1017,4 14 54 0,0
14.07.2018 19:00:00 23,7 13,1 - - 11 6 SSW 1017,3 15 24 0,0
14.07.2018 18:00:00 24,7 12,5 - - 9 5 SSE 1017,5 14 54 0,0
14.07.2018 17:00:00 25,4 13,1 - - 9 5 SE 1017,7 15 54 0,0
14.07.2018 16:00:00 24,7 13,5 - - 11 6 SSE 1018,2 13 54 0,0
14.07.2018 15:00:00 24,4 13,4 - - 11 6 SW 1018,8 15 54 0,0
14.07.2018 14:00:00 23,3 13,8 - - 11 6 S 1019,5 12 54 0,0
14.07.2018 13:00:00 22,5 14,6 - - 9 5 S 1019,9 12 48 0,0
14.07.2018 12:00:00 21,5 14,8 - - 9 5 S 1020,4 9 54 0,0
14.07.2018 11:00:00 19,8 14,7 - - 5 3 SSE 1020,8 7 36 0,0
14.07.2018 10:00:00 18,2 15,1 20,0 18,0 5 3 SSE 1021,1 6 6 0,0
14.07.2018 09:00:00 17,8 14,4 - - 4 2 SW 1021,2 8 24 0,0
14.07.2018 08:00:00 16,1 14,3 - - 2 1 W 1021,3 9 0 0,0
14.07.2018 07:00:00 14,6 13,8 - - 4 2 W 1021,2 9 0 0,0
14.07.2018 06:00:00 13,3 12,9 - - 2 1 NNE 1021,1 7 0 0,0
14.07.2018 05:00:00 13,6 13,0 - - 5 3 WNW 1021,3 8 0 0,0
14.07.2018 04:00:00 14,2 14,1 - - 5 3 WNW 1021,5 8 0 0,0
14.07.2018 03:00:00 14,0 13,9 - - 0 0 N 1021,6 4,4 0 0,0
14.07.2018 02:00:00 13,3 13,2 - - 2 1 WNW 1021,7 4,5 0 0,0
14.07.2018 01:00:00 12,5 12,2 - - 4 2 W 1021,8 2,8 - 0,0
14.07.2018 00:00:00 14,1 13,8 - - 4 2 W 1021,7 4,6 0 0,0
13.07.2018 23:00:00 14,5 13,8 - - 4 2 E 1021,5 3,9 0 0,0
13.07.2018 22:00:00 15,4 14,3 - - 4 2 NNE 1021,3 5 0 0,0
13.07.2018 21:00:00 18,3 16,1 - - 4 2 ESE 1020,8 8 0 0,0
13.07.2018 20:00:00 19,2 16,3 - - 2 1 W 1020,8 10 24 0,0
13.07.2018 19:00:00 19,5 15,7 - - 8 4 E 1020,7 10 54 0,0
13.07.2018 18:00:00 18,6 16,1 - - 5 3 E 1020,9 9 12 0,0

tt = Température de l'air
td = dewpoint
tt -20cm = Température de l'air -20cm
tt -100cm = Température de l'air -100cm
ff = Vitesse du vent
dd = Direction du vent
ppp = reduced air pressure
vv = visibility
sd = Ensoleillement
rr = Quantités de précipitations

stations d'obs. à proximité